Regional Weather Roundup
Issued by NWS Cleveland, OH

Home | Current Version | Previous Version | Text Only | Print | Product List | Glossary Off
Versions: 1 2 3 4 5 6 7 8 9 10 11 12 13 14 15 16 17 18 19 20 21 22 23 24 25 26 27 28 29 30 31 32 33 34 35 36 37 38 39 40 41 42 43 44 45 46 47 48 49 50

000
ASUS41 KCLE 300502
RWRCLE
OHIO REGIONAL WEATHER ROUNDUP
NATIONAL WEATHER SERVICE CLEVELAND, OH
100 AM EDT THU MAR 30 2017

NOTE: "FAIR" INDICATES FEW OR NO CLOUDS BELOW 12,000 FEET WITH NO
SIGNIFICANT WEATHER AND/OR OBSTRUCTIONS TO VISIBILITY.

OHZ001>008-015>018-024>027-034-035-043-044-300600-
   NORTHWEST OHIO

CITY           SKY/WX    TMP DP  RH WIND       PRES   REMARKS
DEFIANCE       CLOUDY    45  32  60 E14       30.12F
FINDLAY        CLOUDY    47  31  53 NE13      30.09F
TOLEDO EXPRESS CLOUDY    43  32  65 NE13      30.15R
TOLEDO EXEC    CLOUDY    43  36  76 NE12      30.15F
LIMA           CLOUDY    46  34  62 E14       30.05F
$$

OHZ009>014-019>023-028>033-038-089-300600-
   NORTHEAST OHIO

CITY           SKY/WX    TMP DP  RH WIND       PRES   REMARKS
CLE-HOPKINS    CLOUDY    50  29  44 NE8       30.18R
CLE-LAKEFRONT  CLOUDY    41  37  86 NE9       30.16R
CUY CO. ARPT   NOT AVBL
LORAIN-ELYRIA  CLOUDY    45  33  63 NE7       30.14F
ASHTABULA      CLOUDY    44  32  62 NE3       30.19R
AKRON-CANTON   PTCLDY    42  30  62 NE8       30.12R
WOOSTER        CLEAR     43  32  65 E8        30.11F
MANSFIELD      CLOUDY    44  32  62 NE8       30.11R
YOUNGSTOWN     CLOUDY    46  28  49 E8        30.15R
$$

OHZ042-051>053-060>062-070>072-077>081-300600-
  SOUTHWEST OHIO

CITY           SKY/WX    TMP DP  RH WIND       PRES   REMARKS
CINC-COVINGTON CLOUDY    53  43  68 SE14      29.98F
CINC-LUNKEN    CLOUDY    54  44  69 VRB3      30.01F
HAMILTON       PTCLDY    50  45  83 E6        30.01F
DAYTON         MOCLDY    51  36  56 E13       30.02F
WRIGHT-PAT AFB PTCLDY    51  37  57 E10       30.01F
DAYTON GENERAL CLOUDY    51  42  71 E6        30.00F
WILMINGTON     CLOUDY    48  42  80 E7        30.00F
$$

OHZ036-037-039>041-045>050-054>059-063>069-073>076-082>088-300600-
  CENTRAL AND SOUTHEAST OHIO

CITY           SKY/WX    TMP DP  RH WIND       PRES   REMARKS
COLUMBUS       CLOUDY    50  34  54 E6        30.06R
OSU AIRPORT    CLOUDY    48  37  65 E9        30.05F
BOLTON FIELD   CLEAR     51  35  55 E9        30.05F
RICKENBACK AFB CLEAR     48  35  61 E6        30.05F
NEWARK         PTCLDY    49  33  54 NE3       30.07R
MARION         CLOUDY    46  34  62 E10       30.08F
LANCASTER      CLEAR     50  35  56 E5        30.06R
ZANESVILLE     CLEAR     49  32  52 N5        30.07S
NEW PHILLY     NOT AVBL
$$



USA.gov is the U.S. government's official web portal to all federal, state and local government web resources and services.